Weather in Arkharovo

Russia / Oryol Oblast     52°28′16″N   36°41′58″E
В апреле 2022 года жителям России запретили посещать сайт meteo.paraplan.net по решению Генеральной прокуратуры. Аудитория сайта уменьшилась в 10 раз. Владельцы сайта не видят смысла в поддержке погодного сервера в таких условиях. Сайт будет закрыт в октябре.
temp.,
°C
wind,
m/s
gust,
m/s
humid.,
%
clouds,
%
prec.,
mm/h
press.,
hPa
HPBL,
m
25 september, sun
sun2500:00+7wsw81391100 3.3 10031118
03:00+6w71194100 7.6 10041055
06:00+6w61092100 1.5 10041155
09:00+6wnw71192100 1.9 10051005
12:00+7w71091100 0.6 10071195
15:00+6w81292100 1.8 10081116
18:00+7w71490100 0.6 10091177
21:00+7wnw7148857 0.9 1010818
26 september, mon
mon2600:00+7wsw41192100 0.0 1011409
03:00+8wsw51277100 0.0 1011379
06:00+7wsw51282100 0.0 1011369
09:00+8w51080100 0.0 1013498
12:00+10w4774100 0.0 1013411
15:00+12wsw46625 0.0 1013944
18:00+11ssw22706 0.0 101313
21:00+8ssw358592 0.0 101490
27 september, tue
tue2700:00+8ssw3387100 0.0 101357
03:00+8sse2595100 0.1 1012167
06:00+9sse2398100 0.6 1012148
09:00+9sse2398100 1.3 1012168
12:00+11se3388100 0.0 1012368
15:00+12ese4685100 0.0 1011562
18:00+11e5989100 0.0 1011381
21:00+10ese61093100 0.0 1010426
28 september, wed
wed2800:00+9ese4996100 0.8 1009346
03:00+9e61198100 3.5 1007346
06:00+10e71497100 0.0 1005407
09:00+11ese61391100 0.1 1004535
12:00+11e5996100 2.5 1003310
15:00+12ese61192100 3.4 1001492
18:00+11ese4797100 1.2 1001297
21:00+11sw259987 1.3 1002201
29 september, thu
thu2900:00+11w369797 0.0 1003206
03:00+10wnw379799 0.0 1004230
06:00+11wnw499799 0.0 1006337
09:00+12wnw589292 0.2 1008470
12:00+13nw578498 0.0 1010661
15:00+13nw4780100 0.0 1012850
18:00+12nnw3679100 0.0 1014236
21:00+12n2381100 0.0 1016102